Simultaneous Nadir Overpasses (SNOs) Predictions

Prediction of SNOs between NOAA-19 and TERRA Satellite Orbit:

Table of predicted SNOs for the next 14.0 days since TLE Epoch: 6/15/2014
Index Date (NOAA-19) Time (NOAA-19) Lat,Lon (NOAA-19) SZA (NOAA-19 ) Date (TERRA) Time (TERRA) Lat,Lon (TERRA) SZA (TERRA ) Distance(km) Time Diff (sec)
1 06/16/2014 19:31:35 -70.58, 68.60 132.88 06/16/2014 19:31:48 -70.59, 68.66 132.87 2.65 13
2 06/16/2014 20:22:32 70.05,-123.32 46.59 06/16/2014 20:21:21 70.16,-124.33 46.70 40.47 71
3 06/19/2014 00:15:26 -70.58, -2.35 132.93 06/19/2014 00:16:04 -70.61, -2.38 132.91 3.26 38
4 06/19/2014 01:06:31 70.49, 165.03 46.98 06/19/2014 01:05:31 70.51, 165.11 46.99 3.18 60
5 06/21/2014 04:59:18 -70.64, -73.38 132.90 06/21/2014 05:00:19 -70.67, -73.36 132.87 2.75 61
6 06/21/2014 05:50:22 70.53, 94.04 46.99 06/21/2014 05:49:47 70.50, 94.04 46.97 2.69 35
7 06/23/2014 09:43:18 -71.11,-145.13 132.41 06/23/2014 09:44:29 -70.98,-143.95 132.54 45.08 71
8 06/23/2014 10:34:13 70.57, 23.04 47.04 06/23/2014 10:34:02 70.54, 23.03 47.02 2.67 11
9 06/23/2014 11:24:53 -69.64,-168.23 133.87 06/23/2014 11:23:46 -69.67,-170.58 133.86 90.91 67
10 06/25/2014 15:18:04 70.61, -47.96 47.13 06/25/2014 15:18:16 70.62, -47.92 47.14 2.14 12
11 06/25/2014 16:09:00 -70.48, 119.51 133.00 06/25/2014 16:07:47 -70.46, 119.48 133.02 1.75 73
12 06/27/2014 20:01:55 70.65,-118.97 47.25 06/27/2014 20:02:31 70.63,-118.97 47.23 2.47 36
13 06/27/2014 20:52:52 -70.54, 48.47
